Theta_e
318 316 315 314 314 318 321 319 318 319 318 312 313 315 317 322 321 322 323 324 325 326 324 325 326 328 326 325 338 350 349 352 352 349 349 355 350 352 353 350 350 346 347 342 332 329 329 329 333 340 344 345 345 345 342 339 336 333 328 327 333 335 334 336 340 342 342 342 340 339 339 337 337 340 340 340 341 342 344 344 344 344 344 343 342 342 342 342 341 341 341 340 338 339 338 338 338
317 316 318 320 320 320 322 319 317 317 314 310 312 315 319 325 322 322 322 324 331 330 328 328 330 329 329 327 334 348 350 349 349 351 351 350 350 353 352 350 348 347 347 340 334 332 334 336 337 342 344 346 346 344 342 339 336 332 328 331 335 336 335 338 342 343 342 342 341 337 336 337 338 341 341 340 341 342 343 343 343 343 343 342 342 341 341 341 341 340 339 339 338 338 338 338 337
319 321 322 320 320 322 324 322 316 312 313 311 312 318 320 322 321 323 322 324 333 332 332 332 332 330 330 330 332 348 353 349 347 348 348 348 352 352 352 350 348 347 344 342 340 338 341 343 341 344 345 346 346 344 342 339 336 332 330 333 337 337 337 340 342 343 342 341 337 333 331 333 337 340 340 341 340 341 342 341 342 342 342 342 342 341 340 340 340 340 339 339 338 338 337 337 336
319 326 325 318 318 321 325 325 320 312 312 311 311 320 322 321 322 323 324 328 334 332 334 331 332 332 335 341 343 349 351 348 346 347 347 349 352 352 352 350 348 346 343 343 345 344 344 344 343 344 345 345 345 344 341 339 336 331 332 336 338 337 339 342 343 343 341 336 330 326 327 330 337 340 340 341 341 341 341 341 342 341 341 341 341 340 340 339 339 339 339 338 337 338 337 336 336
319 326 324 316 316 320 325 324 323 315 312 313 313 319 322 322 322 322 325 327 328 330 330 330 334 334 339 348 349 350 350 347 348 349 348 352 352 353 351 349 348 345 343 343 346 346 345 343 343 344 344 344 345 344 342 341 336 333 336 339 338 338 342 342 343 342 336 329 324 325 327 328 335 340 341 341 340 341 341 340 340 340 340 340 340 340 339 339 339 339 339 338 337 337 336 336 335
320 323 321 317 317 320 323 318 316 315 317 319 316 320 322 321 322 321 322 321 322 325 325 331 333 335 343 348 349 350 351 348 349 349 350 353 353 352 351 349 347 345 344 345 346 346 344 343 343 343 344 345 344 343 342 341 336 335 339 339 340 341 343 343 342 338 330 327 330 332 333 332 333 337 339 340 340 340 339 339 339 339 339 340 340 340 340 339 339 339 339 339 336 336 336 335 332
319 319 319 316 317 321 322 318 314 314 318 321 318 319 322 320 321 320 320 320 320 322 323 329 329 336 345 346 348 350 350 349 348 348 351 353 352 352 351 349 347 345 345 345 346 346 342 341 342 343 344 344 343 342 342 339 337 338 340 340 342 344 343 343 340 334 330 331 335 338 339 337 336 336 337 338 339 339 338 338 339 339 339 339 339 338 339 339 339 339 340 339 336 335 336 335 331
316 317 317 315 317 320 320 317 316 317 318 321 320 320 322 320 321 319 320 319 320 321 322 325 326 340 345 347 350 350 349 349 348 349 352 352 353 353 352 350 347 346 345 346 346 342 339 340 342 343 343 342 342 342 341 339 338 339 339 341 343 343 342 341 337 333 333 335 337 339 340 339 338 337 337 339 339 339 338 338 338 338 338 337 337 337 338 339 339 340 340 338 335 335 337 338 335
315 318 317 316 315 316 315 315 315 317 319 321 321 321 321 320 320 319 320 319 320 322 322 325 325 339 348 351 350 349 349 351 350 351 352 352 353 352 352 350 348 347 346 347 346 340 340 342 341 342 342 341 341 340 340 340 339 339 339 342 343 341 341 338 334 333 334 336 337 339 340 339 339 338 338 339 339 339 339 338 338 338 338 338 338 337 338 339 339 339 339 337 334 334 335 336 335
316 317 318 317 314 311 310 312 314 316 319 319 321 321 320 319 320 319 319 319 320 321 323 327 328 338 348 353 351 350 350 350 351 353 353 353 352 351 351 350 349 349 346 348 345 341 343 343 341 341 341 340 340 339 339 339 338 339 341 341 341 341 338 335 332 333 336 337 338 340 340 339 339 338 339 339 338 339 339 338 338 338 338 338 337 336 337 338 338 339 338 337 335 333 334 333 333
316 316 317 318 314 309 308 312 314 318 318 319 321 321 320 319 319 319 319 319 319 320 321 324 332 341 348 355 354 351 350 350 352 353 353 353 352 352 350 350 349 349 348 347 344 343 343 342 342 342 341 340 341 340 340 340 340 341 341 340 339 339 335 333 334 336 338 339 339 339 340 340 339 339 339 338 337 338 339 338 337 337 337 337 336 336 337 337 337 338 338 339 337 335 334 333 333
314 317 318 316 314 311 311 312 314 319 319 319 320 320 320 319 319 320 320 320 319 319 320 322 334 343 349 356 354 351 351 352 353 352 353 353 352 351 349 349 349 350 347 346 345 343 343 342 342 341 342 342 342 343 344 343 342 342 340 339 337 334 332 335 338 340 341 341 340 340 340 340 339 339 339 337 336 335 335 335 335 335 335 333 333 334 336 336 337 338 338 338 337 335 334 333 333
314 317 317 314 314 315 313 313 315 320 319 320 320 320 320 320 320 320 320 319 319 319 319 324 332 342 348 354 353 350 352 352 353 352 353 352 351 351 349 350 350 349 346 345 345 343 342 343 342 341 342 343 344 343 343 343 341 339 338 335 334 335 336 339 340 341 341 340 340 340 340 339 338 339 337 337 336 334 334 333 333 333 333 331 329 329 330 332 334 335 336 336 336 335 334 333 332
316 317 318 315 315 315 314 313 315 315 315 320 320 320 320 319 321 321 323 320 322 320 319 330 333 344 352 355 354 350 352 352 353 352 352 352 351 350 348 350 350 348 346 344 344 343 342 343 343 341 341 343 342 341 339 340 338 336 335 334 336 339 341 341 341 340 339 339 339 338 338 337 337 337 337 337 336 335 335 334 333 333 332 328 324 324 326 328 329 330 333 334 334 333 333 332 331
317 316 317 317 316 316 315 314 315 313 314 320 318 319 320 319 323 323 324 321 323 321 321 336 336 345 350 351 353 351 352 352 352 352 351 350 350 350 350 351 349 348 346 344 343 342 342 343 343 341 341 341 339 337 334 334 333 333 335 335 338 340 340 341 341 340 339 337 337 336 336 336 336 337 338 337 336 335 334 335 334 331 328 324 321 323 325 326 327 328 330 331 332 331 332 331 331
316 317 317 316 314 313 315 316 316 314 315 320 318 319 319 319 323 322 323 322 325 324 326 336 337 342 343 345 350 350 352 351 352 351 350 350 349 350 351 350 349 347 346 344 343 341 340 341 342 340 340 339 337 335 331 330 330 332 336 336 337 337 337 339 340 339 337 336 335 334 334 334 335 337 337 336 335 334 334 335 333 327 323 321 321 324 325 326 326 326 326 327 328 329 331 330 331
316 316 316 313 313 312 316 317 316 314 317 320 318 319 319 318 323 322 324 325 326 328 331 337 338 341 340 340 347 351 352 350 352 351 350 350 350 351 350 350 349 348 346 344 343 342 340 341 341 340 339 338 337 336 332 330 331 333 336 335 335 335 336 336 336 334 333 333 332 332 331 332 332 332 332 332 332 333 333 335 331 325 324 322 322 324 325 325 324 324 324 324 325 328 330 331 331
316 316 314 313 314 315 317 318 318 317 319 319 318 319 318 318 321 323 325 327 329 332 336 338 341 343 341 342 348 352 351 350 351 351 350 349 350 350 349 349 348 346 344 345 344 342 341 341 341 340 339 339 339 337 333 332 333 334 333 333 335 335 334 332 331 330 330 331 330 330 330 331 331 330 331 330 331 333 334 333 329 325 326 324 323 324 324 324 324 324 323 323 324 326 329 330 330
316 316 315 313 316 317 318 319 319 318 318 319 319 319 318 318 322 326 325 327 328 331 338 338 341 347 347 348 349 351 350 351 352 350 351 349 349 350 350 349 346 343 342 345 344 340 339 340 341 340 339 339 338 336 334 334 334 333 332 335 337 334 331 329 330 331 331 330 329 331 333 333 332 332 333 331 332 335 336 331 327 328 328 327 325 324 324 325 325 324 323 323 323 324 326 328 329
316 316 315 316 316 317 318 319 320 318 318 318 319 318 317 319 321 326 326 330 330 331 339 339 340 347 350 349 349 350 351 351 351 351 351 349 349 350 349 347 343 343 342 344 343 338 338 340 341 339 339 338 338 337 336 335 334 334 335 336 334 330 329 331 331 331 331 330 331 334 335 334 334 335 333 333 335 336 335 330 328 329 329 328 326 325 325 326 325 324 323 323 324 325 327 329 330
316 316 316 317 317 316 317 318 319 319 318 318 319 318 317 318 320 324 327 332 336 334 337 339 337 341 348 348 348 350 351 351 352 351 351 350 349 348 346 344 342 342 342 342 341 339 339 339 339 339 338 338 338 338 337 336 336 336 336 336 331 329 332 334 332 331 331 331 334 336 335 335 336 335 334 334 335 335 334 331 331 331 331 331 329 329 330 331 329 327 326 324 327 330 330 331 333
317 316 316 317 316 316 318 318 318 318 318 317 318 318 318 318 319 322 326 336 341 336 332 336 335 337 343 346 347 350 350 351 351 350 352 350 349 347 343 342 343 342 342 342 340 339 339 339 338 338 339 338 338 337 338 338 338 337 337 335 332 334 336 334 332 333 333 333 335 337 335 335 336 336 335 335 335 334 334 334 335 334 333 334 332 332 333 334 332 332 331 329 330 332 332 332 332
316 317 317 316 317 316 317 318 318 318 317 317 317 317 317 318 318 319 322 335 339 334 332 334 335 338 343 343 347 350 350 350 350 349 350 350 348 343 340 340 341 342 343 342 340 339 338 337 338 339 339 339 338 338 339 339 338 337 337 336 336 336 336 334 335 334 333 334 335 337 335 334 335 336 335 335 334 334 334 335 335 335 335 334 332 332 332 333 332 333 333 331 331 333 332 331 330
316 316 317 317 317 317 316 317 317 317 317 317 317 317 317 317 317 319 320 327 332 332 332 332 333 338 342 344 348 350 350 350 350 350 350 349 345 341 340 341 340 342 343 340 338 336 336 338 339 339 339 339 339 339 339 339 338 337 337 337 337 336 335 336 337 335 334 335 335 336 336 335 335 335 334 334 334 334 334 334 334 334 334 333 333 332 331 331 331 331 332 331 331 332 331 330 329
316 315 317 317 317 317 317 317 318 317 317 316 317 316 317 317 317 318 318 322 331 333 332 331 332 337 342 345 348 350 350 350 350 350 350 346 344 343 341 341 340 342 343 339 337 337 336 338 339 339 339 340 340 339 338 338 338 338 337 336 336 336 336 337 336 334 335 336 336 335 335 335 334 334 334 334 335 334 334 333 332 332 333 332 332 331 330 331 331 331 331 331 331 330 330 329 329
316 316 317 316 317 317 317 318 317 317 317 316 316 316 317 317 317 316 318 320 328 331 331 333 332 335 342 345 346 346 348 351 350 350 350 346 345 344 342 341 340 342 342 339 338 339 338 338 340 341 340 340 339 340 339 339 339 338 337 335 335 336 336 336 335 335 336 337 335 334 333 333 332 332 332 334 335 335 334 333 333 333 332 332 332 332 332 332 332 332 332 332 331 330 329 327 328
316 316 316 317 317 316 317 317 317 317 316 316 315 315 316 316 317 316 317 318 322 326 327 331 334 336 339 343 344 345 346 348 350 350 348 347 346 344 342 342 341 343 342 340 340 339 338 339 340 340 340 339 339 339 340 339 340 338 337 336 335 336 336 335 334 334 336 336 335 335 333 331 331 332 332 334 335 335 335 335 335 335 334 334 334 334 334 333 333 333 332 332 331 330 328 327 329
315 315 316 317 316 317 317 317 317 317 316 316 315 316 315 316 316 316 318 317 321 324 324 329 337 337 334 338 342 343 342 342 347 349 348 347 347 344 343 343 343 343 342 341 339 337 337 338 339 339 339 339 339 338 339 340 340 338 337 336 335 335 334 334 335 334 336 336 335 335 334 333 333 334 334 335 335 336 336 335 335 335 334 334 334 335 334 333 333 333 333 332 330 329 328 328 329
315 315 315 316 316 316 316 316 316 317 316 316 316 314 314 315 315 316 318 318 320 324 322 327 337 337 333 336 341 340 341 342 344 346 347 347 346 346 344 344 344 343 342 341 339 336 336 338 338 339 339 339 339 339 340 340 340 339 338 337 336 335 334 334 336 336 337 336 335 336 336 335 334 334 335 335 335 335 334 334 334 334 334 334 334 333 332 333 333 332 333 332 330 330 329 328 328
315 315 315 315 315 314 316 316 315 316 316 317 315 310 311 315 316 317 318 318 319 321 321 322 328 335 336 337 339 340 342 344 344 345 347 347 345 345 343 343 343 342 342 341 340 338 337 338 339 339 338 338 339 338 339 339 339 338 338 338 337 336 336 336 337 337 338 337 336 336 335 335 335 334 335 335 334 334 334 334 333 334 335 334 333 332 332 332 332 332 331 331 331 330 329 329 329
314 314 314 314 311 311 315 316 316 316 316 317 315 309 311 316 315 316 318 317 319 321 320 322 319 331 338 338 338 339 341 344 345 345 346 346 345 344 343 343 343 341 341 341 341 339 338 340 340 340 339 338 338 338 338 338 338 337 337 338 338 338 337 337 338 337 337 336 336 336 335 335 335 335 335 335 334 335 335 334 334 334 335 334 333 332 332 333 332 332 330 331 331 330 330 330 329
314 312 310 312 310 310 316 316 316 316 316 317 315 310 311 316 316 317 318 317 320 321 320 323 320 330 338 338 337 339 342 344 346 346 345 346 344 344 343 343 343 341 341 341 340 338 338 340 341 341 339 337 338 337 337 338 337 337 337 338 338 338 338 337 338 337 337 336 336 336 336 336 335 335 334 334 335 335 334 334 333 334 335 334 333 333 333 333 333 332 331 331 330 330 330 330 329
313 312 309 310 310 310 313 315 316 316 315 317 314 312 313 315 316 317 318 317 319 322 321 322 321 330 339 338 337 339 342 344 345 345 345 344 344 343 343 342 342 342 341 340 340 338 339 340 340 341 339 337 337 337 337 337 337 337 337 338 339 339 338 337 337 337 337 337 336 335 336 336 336 336 334 334 334 334 333 333 333 334 334 334 333 333 333 333 334 333 332 331 330 331 330 329 330
312 312 310 310 310 309 310 312 316 317 315 316 314 313 314 316 316 316 318 318 318 322 322 323 321 327 337 337 336 339 342 344 345 345 345 344 343 342 342 341 342 341 340 340 340 340 340 340 340 340 338 338 338 337 337 338 338 338 338 338 339 338 337 337 336 336 336 336 336 336 336 336 335 335 334 334 334 333 334 333 333 333 333 333 333 332 333 332 333 334 333 332 332 333 332 330 330
310 311 310 310 310 310 310 311 315 316 316 315 314 314 315 316 316 317 318 318 319 322 321 323 323 323 336 336 334 338 343 344 344 343 343 343 342 341 341 340 340 341 340 339 339 338 339 339 340 339 338 339 339 338 339 339 338 338 338 339 338 338 336 335 334 334 334 334 335 335 336 336 335 335 334 334 333 332 333 332 332 332 332 333 333 331 332 333 332 333 333 334 334 334 334 332 330
312 313 312 310 310 310 312 315 316 317 316 315 315 314 315 315 316 317 320 320 319 322 322 324 323 323 333 335 332 338 342 341 341 340 341 343 342 341 341 340 340 340 340 340 338 337 337 338 339 339 339 339 339 339 340 339 339 338 338 338 338 336 335 334 333 332 332 333 333 335 336 335 335 336 335 333 332 332 332 331 331 332 332 333 333 331 332 333 332 333 333 333 333 333 333 332 330
314 314 313 312 311 310 314 317 317 317 315 315 316 315 315 316 316 318 320 321 321 322 323 323 322 323 329 334 333 339 341 339 340 341 341 342 342 341 341 340 341 340 340 340 338 336 336 337 339 339 339 340 339 339 339 338 338 338 337 337 335 334 333 333 332 331 332 332 333 334 335 336 335 335 335 334 333 332 331 331 331 332 332 332 332 331 331 332 332 333 333 332 333 332 332 331 330
315 315 313 313 311 312 315 317 316 318 316 314 317 315 315 316 316 317 320 322 322 322 323 323 322 322 325 332 334 335 339 338 340 342 340 341 342 342 342 341 340 340 340 340 338 334 333 334 338 339 338 340 339 339 338 336 336 336 335 334 332 331 331 331 331 331 333 333 333 334 334 334 334 335 334 334 333 332 331 331 331 332 332 331 331 331 332 332 332 333 333 331 331 331 331 330 330
316 316 314 312 313 313 315 317 317 317 316 315 316 315 314 316 317 317 318 321 323 323 323 323 323 323 324 331 333 336 340 339 341 341 338 341 342 341 342 341 339 339 340 339 337 333 329 330 337 339 337 337 338 338 336 334 334 333 333 332 330 329 329 329 329 330 332 333 333 334 333 333 333 333 334 333 332 333 332 332 333 332 332 332 332 332 333 332 332 333 333 332 331 330 330 331 331
316 316 314 312 314 312 311 315 318 318 317 317 317 315 315 318 317 317 318 319 322 322 322 322 323 323 325 330 333 338 339 339 341 340 338 340 340 341 341 340 339 339 340 339 336 332 329 332 337 338 337 337 338 336 335 334 333 332 332 331 331 332 331 330 328 328 331 332 332 333 332 332 332 332 332 332 332 333 332 333 333 333 332 332 332 331 332 332 332 332 332 331 331 330 331 331 331
317 317 315 313 314 314 312 316 319 317 318 319 318 314 314 317 317 317 318 318 321 321 322 323 321 323 325 330 337 340 340 339 341 339 337 339 340 340 340 339 340 339 340 339 334 331 331 334 337 338 338 338 336 335 334 334 334 333 332 331 332 331 330 328 328 328 328 329 331 332 331 331 330 330 330 331 331 331 332 332 332 332 332 332 332 331 332 332 332 332 331 331 331 330 330 330 331
314 316 317 316 315 316 315 317 316 314 314 317 317 312 311 316 317 318 318 318 320 321 324 324 322 325 325 328 339 342 341 339 340 339 337 339 340 340 339 339 340 339 339 338 332 330 331 333 336 338 338 337 335 334 334 334 334 333 333 331 328 328 327 329 329 328 326 326 328 329 329 330 329 328 329 329 329 329 329 329 329 330 331 331 331 331 332 332 331 331 331 330 330 330 330 329 330
312 314 316 316 316 315 315 316 314 311 312 318 320 314 311 314 315 319 320 319 319 322 326 325 322 326 325 329 339 338 339 339 340 338 337 339 338 339 338 337 339 339 338 335 331 330 331 333 336 338 338 336 332 330 330 332 333 334 333 329 326 327 328 328 328 327 326 325 325 327 328 329 329 329 328 327 326 327 327 327 328 328 329 329 330 330 331 331 331 331 330 330 331 330 330 329 328
312 315 316 315 314 315 316 315 313 312 314 318 319 316 311 310 315 320 320 319 320 322 325 327 324 326 328 334 336 335 336 338 339 337 337 336 334 336 337 335 337 338 335 331 329 329 331 334 336 337 336 333 329 326 327 331 333 333 332 328 326 328 329 327 327 327 325 324 325 326 326 327 327 327 327 326 326 327 328 328 328 327 327 327 328 328 329 330 331 331 331 331 331 330 330 329 328
314 316 316 315 315 315 316 315 314 315 315 313 315 316 313 310 313 320 321 318 320 322 326 328 326 328 332 335 336 335 333 334 334 336 335 334 333 333 333 333 335 336 332 330 331 332 333 335 336 336 334 332 329 328 329 332 333 332 331 329 328 329 328 327 328 326 324 324 325 326 326 327 327 327 326 326 326 327 328 328 328 327 326 326 326 327 329 330 330 330 331 331 331 330 330 330 328
316 315 315 316 316 315 316 316 313 315 316 313 313 315 314 312 313 316 320 319 320 325 327 327 327 330 333 336 340 337 332 331 334 333 333 333 333 331 329 330 333 333 331 331 332 333 334 335 335 334 333 332 329 327 331 333 331 331 331 330 329 328 327 326 325 324 324 326 327 327 327 327 328 327 327 326 326 327 327 327 327 327 326 326 326 327 328 329 330 330 330 330 330 330 330 329 329
316 315 315 316 316 315 315 316 313 313 314 313 313 314 315 314 313 314 319 321 323 326 325 326 328 329 334 338 340 336 334 334 335 330 331 332 331 331 329 329 330 330 329 331 332 333 335 335 332 331 330 328 325 325 331 332 329 330 331 330 328 326 325 324 324 324 325 327 328 328 327 327 327 327 327 327 327 326 326 326 326 326 326 326 326 326 326 328 329 329 330 330 330 330 330 330 329
316 315 315 315 315 313 311 311 312 313 313 312 312 314 315 314 314 317 321 323 325 324 324 328 328 328 334 338 337 335 333 335 333 329 330 330 329 329 329 330 330 329 329 332 334 334 334 334 330 328 328 325 322 323 329 331 330 331 331 329 326 325 325 325 324 324 324 325 326 326 326 327 327 327 327 327 326 326 326 325 326 326 325 325 325 325 325 326 328 328 328 329 329 330 330 330 330
316 315 314 313 313 313 313 311 312 314 313 313 313 314 314 315 318 320 324 325 324 324 325 328 328 327 331 335 335 334 333 334 332 330 330 330 329 328 329 330 330 329 330 331 333 332 332 332 329 327 329 326 321 322 328 330 331 331 331 329 326 326 326 325 325 325 324 324 325 325 325 326 326 326 326 326 325 325 325 325 325 325 324 324 324 324 324 325 326 327 327 327 328 329 329 328 328
315 313 311 313 314 315 316 314 313 314 312 312 314 316 315 316 320 324 326 327 326 325 325 327 327 328 330 331 332 333 333 332 330 330 330 329 330 329 329 330 329 329 330 331 331 331 329 329 328 327 329 327 324 325 328 330 331 331 331 329 327 328 326 324 325 324 324 325 325 324 324 324 326 326 325 325 324 325 325 324 323 323 324 324 323 323 323 324 325 325 326 326 326 327 327 327 325
315 315 313 314 315 316 316 314 313 314 312 312 315 316 316 317 322 326 327 327 328 328 328 328 328 328 330 330 330 334 334 331 330 330 330 329 330 330 330 330 329 329 330 330 331 331 330 330 329 327 327 327 327 328 329 331 332 331 331 329 328 327 325 324 324 324 324 323 323 323 323 325 325 326 325 323 323 323 323 322 322 323 323 323 323 322 322 323 323 324 324 325 325 326 326 325 323
316 314 313 314 316 316 315 315 315 314 313 313 315 317 319 322 325 326 325 325 328 328 328 329 330 330 331 332 333 334 332 331 331 330 329 330 330 330 329 329 329 329 329 330 330 332 332 332 331 329 327 328 330 330 330 332 332 331 331 329 328 326 324 323 323 324 324 322 323 323 324 325 326 324 323 320 320 321 321 321 323 323 322 322 322 321 320 320 321 321 321 322 323 323 322 322 320
317 314 310 313 318 317 315 315 315 314 314 315 316 319 322 324 326 325 324 323 326 328 329 329 330 330 331 334 334 333 332 331 331 330 330 331 330 329 329 329 329 329 330 331 331 332 332 332 332 331 329 329 332 332 332 333 332 331 330 329 328 327 324 323 324 324 324 323 323 323 324 325 325 323 320 319 319 319 319 321 321 322 321 321 320 319 318 319 319 319 319 319 319 318 319 319 318
316 314 312 314 318 318 316 316 315 315 315 314 314 317 318 319 322 325 325 325 328 330 331 330 329 329 331 333 332 331 331 330 329 329 330 330 329 328 328 329 329 330 330 331 331 331 332 332 332 332 331 332 332 333 334 333 331 331 331 330 329 327 324 324 325 324 324 323 323 323 324 324 323 321 319 318 318 317 317 319 319 319 319 318 318 318 318 318 317 318 317 317 317 317 318 318 318
316 315 317 318 318 316 315 315 316 317 318 315 312 314 317 319 321 324 325 328 330 331 331 330 329 330 331 331 330 329 331 330 329 328 329 329 329 328 328 327 328 329 328 329 330 330 331 332 332 333 332 332 332 333 334 333 331 331 331 330 329 328 326 326 325 324 323 323 322 322 323 323 322 320 319 318 317 316 315 316 316 317 317 317 316 316 316 316 315 315 315 316 316 316 316 317 318
315 317 316 317 319 316 315 316 315 315 318 317 311 312 323 328 326 326 328 330 330 330 331 331 329 328 330 330 329 328 329 330 329 329 329 329 329 328 328 327 327 328 328 328 328 329 331 331 332 332 329 327 328 330 332 332 331 331 331 330 329 328 327 326 324 324 323 322 321 321 322 322 321 320 318 317 316 315 315 315 315 315 315 316 316 315 315 314 314 314 314 314 315 315 315 315 318
314 314 312 314 316 316 317 318 314 312 316 317 313 318 329 331 328 329 331 331 331 330 330 330 329 329 329 330 330 328 329 330 329 329 329 329 329 328 327 327 328 328 328 329 328 329 330 330 331 331 328 328 328 328 330 331 331 330 329 329 329 329 327 325 324 324 324 322 320 321 322 321 320 319 318 316 315 315 315 314 314 314 315 315 316 315 315 315 314 314 314 314 314 315 315 315 317
314 313 313 314 315 315 316 316 314 312 313 316 318 325 330 329 327 330 331 331 331 330 330 330 329 328 329 330 329 328 328 329 329 328 328 328 328 328 328 327 328 328 329 329 329 329 330 329 330 330 329 329 329 328 329 331 331 330 329 329 330 328 325 324 324 323 323 321 320 320 321 320 319 318 317 316 315 315 315 314 314 314 315 315 316 316 316 316 315 315 314 314 314 315 316 316 317
Wind_Speed
10 9 7 6 8 10 8 6 4 5 5 7 9 8 11 14 15 14 8 3 1 3 3 3 2 2 2 5 4 16 13 10 7 4 4 6 12 17 21 26 25 24 22 21 23 21 20 19 19 21 21 21 21 21 22 23 23 23 24 24 23 24 23 21 18 17 15 14 14 15 16 16 16 16 15 14 14 13 12 12 12 12 13 14 13 12 11 11 11 11 12 11 11 11 11 11 10
10 8 7 8 10 8 4 5 5 5 6 8 8 10 12 13 17 13 7 4 5 4 2 2 2 2 2 8 2 12 12 12 11 9 9 14 18 18 20 22 24 24 22 21 22 20 18 18 20 21 21 20 20 21 22 23 23 24 23 23 24 24 23 20 17 16 14 13 13 14 14 15 15 16 15 13 13 12 12 11 11 11 12 13 12 12 10 10 11 11 11 11 11 11 11 10 9
11 10 10 9 9 8 4 5 6 6 8 8 8 12 13 14 14 7 6 3 9 8 3 3 1 2 1 4 3 8 9 10 12 12 10 16 16 16 20 21 23 23 21 22 19 19 17 18 21 21 20 20 21 21 22 23 23 24 23 24 25 24 21 18 16 15 13 13 13 13 14 14 15 15 14 12 12 12 12 11 11 11 11 11 11 11 10 10 10 10 10 10 11 10 10 9 9
12 12 11 9 6 6 5 5 7 8 8 8 8 10 14 16 11 1 1 4 9 5 1 2 3 1 3 4 6 10 10 8 10 10 8 14 16 18 23 22 22 22 21 20 18 18 16 19 22 20 20 20 21 22 23 23 23 24 24 25 24 22 20 17 16 14 13 13 13 13 13 14 15 15 14 13 12 12 12 12 11 11 11 10 10 10 10 10 10 9 10 10 10 10 10 9 8
12 13 13 10 5 3 5 5 6 8 8 9 8 4 7 10 4 9 10 7 4 1 2 1 2 4 8 10 6 5 8 7 9 10 11 17 21 22 23 22 20 21 21 19 18 17 16 21 22 20 20 20 21 22 22 22 23 24 24 24 23 20 18 16 15 14 13 13 13 13 13 14 14 15 15 13 12 12 12 12 11 11 11 10 10 10 10 10 9 9 9 9 10 9 10 9 8
12 13 12 11 6 5 5 6 8 8 11 12 10 9 10 6 9 9 9 4 1 2 4 3 2 4 8 9 8 6 7 5 7 9 13 20 23 22 22 21 18 20 21 19 18 15 18 22 21 21 20 20 21 21 22 22 24 25 24 23 21 18 16 16 15 14 14 14 14 13 13 13 13 14 14 13 11 10 10 11 12 11 11 11 10 10 10 10 9 9 9 9 9 9 9 9 8
12 10 7 8 5 5 6 7 9 8 12 13 13 13 7 9 7 4 4 3 4 4 6 5 6 5 7 7 8 9 10 5 7 8 14 22 23 20 19 18 18 20 20 19 18 15 19 22 21 21 20 21 21 22 22 23 25 25 24 22 19 17 16 15 15 15 15 14 13 12 12 12 13 13 13 12 11 10 11 12 12 11 11 11 10 10 10 9 9 9 9 9 8 8 9 9 9
15 9 3 6 5 5 7 8 10 8 11 13 15 11 2 6 4 3 2 3 4 4 7 7 8 7 9 9 8 7 12 11 10 13 16 22 21 19 17 17 19 20 19 20 18 17 21 23 22 22 22 21 21 23 23 23 24 25 23 20 18 17 16 16 15 15 14 13 12 11 11 12 13 13 13 11 10 11 11 11 11 11 11 10 10 10 10 9 8 8 8 8 6 7 8 7 7
14 9 4 6 6 6 8 9 9 11 13 13 14 5 8 6 2 3 7 4 2 2 5 7 7 7 11 13 10 6 11 13 14 16 16 19 20 19 16 18 20 20 20 20 18 19 21 23 24 23 23 22 23 23 24 24 24 24 22 19 17 17 16 16 16 15 14 13 12 12 11 12 13 13 12 11 10 10 9 9 10 11 11 11 10 10 10 10 9 8 8 6 5 6 5 4 5
8 7 6 5 6 8 8 9 9 11 13 15 14 3 7 5 2 6 7 7 4 5 4 6 6 9 13 12 7 6 10 11 14 14 15 17 18 16 15 18 19 20 21 20 20 20 21 23 24 24 24 23 24 24 25 24 24 22 20 18 18 18 17 16 16 15 13 12 12 13 12 12 14 13 12 10 10 8 7 8 9 9 10 10 10 10 10 11 11 10 9 6 5 6 5 4 4
6 6 6 6 7 8 8 8 9 10 12 15 11 6 5 3 1 5 8 9 7 6 6 7 6 13 13 9 5 5 11 11 12 13 15 16 15 14 15 18 18 21 22 21 21 21 21 23 24 24 25 24 24 25 24 23 22 20 18 18 19 19 18 16 15 14 13 12 13 13 13 13 13 13 11 10 9 8 7 8 8 8 9 8 8 8 8 9 9 9 9 6 5 5 5 5 3
6 6 6 7 7 7 9 9 10 11 12 15 8 4 2 4 3 6 8 9 8 8 7 7 8 15 10 8 5 6 12 11 12 13 15 16 15 14 15 18 19 20 21 21 21 22 22 22 22 23 24 23 23 22 21 20 19 18 18 19 19 19 18 16 14 14 13 12 13 14 14 12 11 11 11 9 9 8 8 8 7 7 7 7 7 7 7 7 7 8 8 6 5 5 5 4 3
7 7 7 7 7 8 10 10 10 10 10 10 4 5 5 4 3 7 8 10 10 9 8 7 10 14 9 7 7 7 11 12 13 14 15 15 14 14 15 19 21 20 21 21 21 22 22 21 20 21 22 21 20 20 20 19 18 18 19 20 19 17 16 16 15 15 14 13 13 14 13 12 11 11 11 10 8 8 7 7 6 6 6 5 4 5 5 6 6 6 6 6 5 5 5 4 3
7 7 7 7 8 9 10 10 10 10 7 1 3 8 9 4 4 4 6 9 7 9 9 7 12 13 9 6 6 6 10 15 15 15 14 15 14 14 16 19 21 21 21 21 21 22 22 20 20 19 19 20 20 20 20 18 19 20 20 19 17 15 15 15 14 14 14 13 13 12 12 11 11 11 10 9 7 7 6 6 5 4 4 3 2 3 4 6 6 6 6 6 5 5 6 6 5
8 6 7 7 7 9 9 10 10 11 4 10 5 8 7 4 2 2 7 9 7 9 5 12 13 8 7 6 5 7 14 18 16 15 15 15 15 16 17 19 20 20 20 21 21 21 20 18 19 20 19 21 22 21 20 20 20 21 19 19 17 15 15 13 13 13 13 12 11 11 11 11 10 9 8 6 5 5 5 4 4 3 2 1 1 3 4 5 5 5 6 7 7 7 7 7 6
8 6 7 7 8 10 8 10 10 11 3 11 3 3 3 6 5 4 8 7 8 5 2 10 9 5 8 6 8 16 20 20 17 15 15 15 16 17 17 18 18 18 18 20 21 20 20 19 19 20 20 23 25 24 23 22 22 21 18 17 16 15 15 14 12 11 11 11 11 11 11 11 11 9 7 6 4 3 4 4 3 2 0 1 0 2 3 3 3 3 4 6 7 7 7 7 6
7 7 7 7 9 10 8 11 8 7 5 8 1 3 3 6 5 4 5 6 9 1 6 9 9 6 8 6 14 23 23 21 18 15 16 16 16 17 16 17 17 16 16 17 19 18 20 21 20 20 20 22 25 25 25 24 22 21 18 16 16 15 15 14 12 11 11 11 11 12 12 11 11 10 8 7 6 5 5 4 3 2 0 1 1 1 2 2 1 2 2 3 5 6 7 7 6
7 6 8 8 8 10 10 12 8 6 6 5 7 6 3 8 3 5 4 7 7 2 7 12 13 10 7 11 20 25 22 21 19 16 16 15 15 14 14 16 16 15 14 14 15 15 17 20 18 19 19 21 25 26 25 24 22 22 20 17 16 15 15 15 14 14 13 13 13 13 13 12 11 10 9 9 8 6 5 6 4 3 1 1 1 0 1 1 1 1 1 1 3 6 7 7 6
8 6 8 8 10 12 12 13 8 4 6 6 6 2 5 7 3 3 4 8 9 8 8 12 11 12 12 15 20 21 21 19 17 16 15 15 14 14 14 14 14 14 13 12 11 11 14 18 19 20 23 24 25 26 24 23 23 22 21 19 19 17 17 17 17 16 15 15 14 13 12 11 11 10 10 8 7 7 6 6 5 3 2 1 1 0 1 1 1 2 2 0 2 4 8 9 7
9 8 8 9 13 14 16 15 8 5 8 8 4 2 6 2 2 2 3 6 7 7 7 9 7 10 13 13 16 17 18 17 16 15 15 15 15 15 13 12 12 13 13 11 12 16 17 19 22 23 26 27 25 25 25 24 23 22 22 21 21 20 19 18 17 17 16 15 14 13 12 11 12 10 10 9 9 8 6 6 5 4 3 2 1 1 2 3 4 3 2 1 1 4 6 8 8
8 9 9 11 14 14 17 13 8 6 4 6 4 1 5 2 2 3 2 3 3 2 5 10 9 9 12 13 13 15 15 15 15 14 14 14 14 14 15 15 13 13 14 12 12 14 15 18 23 24 26 27 25 27 27 26 25 23 23 22 22 22 19 19 18 18 17 17 15 14 13 13 12 10 10 10 10 8 6 6 6 4 4 3 2 1 1 3 5 5 4 3 3 3 7 8 10
7 11 13 15 16 14 15 8 7 7 1 4 5 4 6 2 1 5 4 5 2 4 2 6 11 11 12 14 12 13 14 14 14 13 12 13 13 17 18 16 16 15 14 14 13 11 12 16 24 26 27 27 27 28 28 26 24 24 23 22 23 21 19 20 20 19 19 18 16 14 14 12 11 10 9 9 9 9 8 8 7 6 6 6 5 3 3 2 4 6 7 7 9 10 12 12 10
9 11 14 16 18 17 15 10 5 3 3 5 8 10 9 3 3 8 7 8 9 4 5 2 13 14 12 13 12 13 14 13 13 13 14 14 14 19 17 16 16 16 13 14 15 12 15 18 23 27 27 28 28 26 24 23 22 23 23 23 22 21 20 21 19 19 19 17 15 13 12 11 10 9 9 8 9 9 9 10 10 9 9 8 7 5 5 3 3 6 8 10 10 11 13 10 8
12 12 13 16 18 17 15 12 3 2 5 9 10 12 7 5 7 5 6 7 14 13 6 4 12 15 13 12 12 12 12 12 12 14 16 12 17 19 18 16 15 15 14 15 16 16 21 21 23 27 27 27 26 22 20 20 20 21 23 23 21 20 20 18 17 17 16 14 13 13 11 10 10 9 9 9 10 11 10 11 12 10 9 7 6 6 4 2 2 6 10 11 9 9 12 10 8
14 14 14 14 15 16 15 14 7 3 6 8 10 12 5 6 11 6 8 6 19 17 12 11 10 12 13 11 11 10 10 11 12 14 13 15 20 19 18 17 16 15 16 18 18 20 25 25 23 26 27 26 24 21 20 21 20 20 21 21 20 19 17 15 15 14 12 12 12 10 10 10 11 11 10 8 8 10 10 11 11 10 8 4 3 4 4 2 3 7 11 10 8 9 8 7 10
12 15 15 15 16 16 13 11 11 9 6 7 10 12 8 8 12 9 9 5 14 17 15 16 12 11 13 11 8 6 7 11 12 13 12 18 21 19 18 17 16 16 19 20 20 21 25 27 24 23 25 26 24 21 20 21 19 19 19 19 19 18 16 15 14 12 10 11 11 10 10 10 11 10 9 7 7 7 7 7 7 6 4 2 3 3 3 4 5 6 10 8 7 8 6 4 8
10 16 16 17 17 16 14 10 11 11 9 11 11 11 11 11 11 8 7 11 10 12 11 17 18 13 12 11 8 3 3 8 12 13 13 16 18 18 17 16 15 18 21 21 21 22 23 25 22 20 22 24 22 20 20 20 18 18 17 18 18 16 15 14 13 11 10 11 12 11 10 11 11 10 8 8 7 5 4 5 5 3 4 4 4 4 4 5 5 6 8 7 5 5 6 4 5
13 17 14 13 15 16 18 15 11 10 11 13 12 12 13 11 12 9 9 15 10 10 10 15 19 15 13 13 10 4 2 10 11 12 13 12 14 17 17 15 16 19 20 20 22 23 21 22 22 20 21 22 21 20 20 19 18 17 15 16 16 14 14 13 11 11 10 11 13 13 12 12 14 13 12 10 9 7 6 5 4 4 5 6 5 5 7 6 5 5 6 5 4 4 6 4 4
14 16 12 11 14 15 19 17 11 11 11 12 13 12 13 12 13 13 13 15 9 11 12 12 17 15 13 13 11 8 9 12 9 9 13 14 13 16 16 14 17 19 19 19 21 24 23 22 23 22 22 22 21 21 20 19 19 17 15 15 14 13 13 11 11 11 9 9 11 14 13 14 14 13 12 11 10 9 6 5 6 5 5 7 7 7 8 7 6 5 4 4 4 4 5 5 4
13 13 11 11 12 12 16 16 14 14 11 11 11 8 10 12 15 16 14 17 12 13 12 11 13 13 11 9 10 10 12 10 7 8 13 16 15 16 15 14 16 18 19 19 20 23 22 21 22 23 23 23 21 21 20 18 17 16 15 14 13 12 12 11 11 11 10 9 9 11 11 12 12 11 10 11 9 7 6 6 7 7 5 5 7 7 8 7 6 5 5 5 5 4 4 5 4
11 11 9 9 9 9 14 16 16 15 11 13 12 7 9 11 17 17 14 17 12 12 12 10 10 10 13 9 10 10 10 10 11 12 14 16 16 15 15 15 16 18 20 19 20 21 20 20 21 21 23 22 20 19 18 16 16 15 14 13 13 12 11 11 10 10 10 9 9 8 8 10 11 10 10 10 9 7 7 7 8 7 6 5 6 7 8 7 6 5 5 4 4 4 3 3 4
8 9 9 8 9 10 13 15 18 17 13 15 14 8 9 12 15 17 17 16 12 11 12 11 11 8 15 11 10 10 9 10 13 15 15 16 17 16 15 15 15 17 19 20 20 20 19 19 18 20 22 21 19 18 16 16 15 14 12 12 12 11 10 11 10 9 8 9 9 8 9 10 10 10 9 9 8 8 8 9 8 8 7 6 6 6 7 6 5 5 4 2 3 4 2 2 2
8 8 9 9 11 10 11 15 18 20 15 17 17 10 8 10 15 16 19 18 16 15 13 12 12 8 14 9 5 8 8 9 11 14 16 16 16 16 15 15 15 15 18 21 21 20 19 17 17 19 20 19 18 17 15 15 15 13 12 11 11 10 9 9 8 8 7 8 8 8 10 11 10 10 9 9 10 10 11 9 8 8 7 5 6 7 8 7 4 3 3 2 2 2 0 0 1
7 8 8 11 14 11 10 13 16 21 17 16 18 13 10 11 15 16 19 22 18 16 15 13 13 9 11 11 6 8 8 9 9 10 15 17 16 16 16 16 15 15 17 20 20 19 18 17 17 18 18 18 17 16 16 15 14 13 11 10 10 8 7 7 7 6 6 6 6 7 9 10 10 9 9 9 10 12 11 9 9 9 7 6 7 7 7 7 5 4 3 2 2 3 2 2 1
9 9 8 10 13 14 13 13 13 20 19 16 16 15 14 16 16 16 15 22 19 15 15 13 13 12 11 12 10 10 10 8 7 8 14 17 16 16 16 16 17 16 17 20 21 20 19 18 17 18 18 17 15 15 16 15 13 12 10 10 9 8 7 7 6 6 6 5 6 6 8 9 9 9 9 8 9 11 10 8 10 9 8 7 6 6 6 7 6 5 4 4 3 3 2 2 2
14 10 10 10 10 12 14 15 14 18 19 15 14 14 15 17 18 13 4 12 14 14 13 11 13 13 11 12 10 10 11 7 7 12 15 16 17 17 16 16 16 16 19 21 21 19 19 19 18 18 17 16 16 15 14 13 13 12 10 9 8 8 7 6 5 6 6 5 5 6 7 8 8 9 8 7 7 10 9 10 10 9 8 9 7 7 6 7 7 6 5 5 4 3 2 1 2
17 12 12 13 11 11 14 16 13 16 15 13 14 15 15 15 17 13 7 11 9 11 10 10 11 10 11 12 11 12 12 11 14 17 17 16 16 16 16 17 15 16 18 20 21 19 18 19 20 20 17 16 16 15 13 13 12 11 11 10 8 8 8 7 6 6 6 7 7 5 6 7 8 9 9 8 7 8 9 10 10 9 8 9 9 8 6 6 7 5 4 6 6 5 4 2 3
16 13 13 12 11 11 13 15 13 13 11 10 14 14 14 14 14 14 12 15 13 12 10 12 11 10 11 11 12 13 10 11 16 16 15 16 16 14 15 17 16 16 17 19 21 19 18 19 19 20 18 16 16 13 12 12 11 11 10 9 8 8 7 7 7 7 7 8 7 6 6 7 7 8 9 8 7 7 8 9 9 9 8 9 9 8 7 6 6 5 4 5 6 7 5 4 4
12 10 11 10 8 9 12 14 14 12 7 7 13 12 12 13 14 15 14 13 14 13 13 12 11 11 11 12 12 10 6 8 13 15 14 15 15 14 14 16 17 16 17 18 18 18 18 17 17 19 20 17 16 13 11 10 10 9 8 7 8 9 8 8 9 8 8 8 8 7 7 7 7 8 8 8 8 8 9 10 10 10 8 8 8 8 8 6 5 5 5 5 5 7 6 4 4
9 8 8 9 8 9 8 6 7 7 5 6 9 8 9 11 13 14 13 12 12 14 14 12 12 10 10 13 11 12 11 13 14 15 13 13 15 17 15 16 17 16 17 18 17 19 20 17 17 19 19 17 16 13 12 11 10 8 8 7 9 11 11 10 10 8 8 8 8 8 8 7 7 8 8 8 9 9 10 10 11 11 9 8 9 8 8 8 7 7 8 7 7 7 6 5 4
8 11 10 9 10 12 8 5 6 6 6 5 7 7 7 10 14 12 10 13 12 14 14 13 13 11 11 12 8 10 8 11 14 15 13 12 14 18 17 17 17 15 16 17 18 19 18 17 18 19 18 17 16 14 14 15 12 9 9 8 9 12 11 9 9 8 7 7 8 8 8 7 7 8 7 8 10 9 8 8 8 9 9 9 9 9 8 9 9 9 9 8 8 7 6 5 3
8 12 14 15 15 16 12 8 8 4 5 8 6 8 7 9 13 10 9 13 11 11 12 14 13 12 13 11 7 7 2 8 11 14 13 10 10 16 18 16 14 15 16 16 17 17 16 15 16 18 19 19 17 16 16 17 14 10 7 7 8 9 8 7 8 8 7 7 8 8 7 7 7 7 7 9 10 8 7 7 6 6 6 6 7 7 8 8 8 8 8 8 7 6 6 6 4
8 10 15 18 19 19 17 9 7 5 5 6 9 9 6 7 11 12 11 12 11 12 13 14 12 12 14 8 9 6 7 10 9 11 10 7 5 10 15 14 10 12 13 15 20 19 17 16 13 16 21 21 19 18 16 18 16 9 6 6 7 7 7 8 8 7 7 8 9 8 7 7 7 7 7 8 8 7 7 7 5 6 6 5 4 4 5 5 6 5 6 7 6 5 5 6 5
8 10 13 17 19 18 18 12 6 6 6 6 10 10 7 6 10 14 16 14 13 14 14 12 11 12 9 7 11 6 10 8 9 11 11 7 7 6 14 15 9 10 14 21 26 22 20 18 14 18 22 21 20 18 16 17 15 10 7 6 6 7 8 9 8 7 7 8 8 7 7 7 7 7 7 6 7 7 7 7 5 5 6 6 5 3 2 3 5 5 4 5 6 5 5 6 6
10 14 13 13 16 17 15 10 6 6 6 6 8 10 8 7 8 11 13 14 15 14 12 12 12 9 5 10 7 7 10 9 6 9 14 12 9 5 13 16 11 14 20 26 29 26 23 21 18 21 21 20 20 18 16 15 14 12 8 6 7 7 9 9 7 6 8 8 7 7 7 8 7 7 6 6 7 7 7 7 6 5 4 6 6 4 4 5 5 5 5 5 6 6 6 7 7
11 14 15 13 13 14 12 8 6 6 6 7 9 9 7 6 7 6 5 10 12 11 11 11 10 4 8 9 4 5 8 7 6 13 14 13 7 2 5 12 15 18 23 28 30 28 24 21 21 22 20 19 18 17 17 16 15 14 9 7 7 10 10 8 7 7 8 7 7 6 7 7 6 6 6 5 6 7 7 8 7 6 6 6 7 7 6 7 6 7 6 5 6 6 6 7 8
12 12 12 11 9 9 9 7 7 6 6 8 11 11 8 6 7 6 6 9 9 8 10 10 8 6 8 7 5 5 9 5 14 19 17 13 14 13 11 17 18 18 22 26 28 28 25 21 23 22 19 18 17 16 17 16 17 16 11 8 9 12 10 9 9 8 7 7 6 6 6 6 6 7 6 5 6 7 6 7 7 7 8 7 7 7 6 7 8 8 8 8 7 7 8 9 9
10 9 7 7 6 7 7 7 6 6 6 9 12 14 11 7 6 4 3 6 8 8 8 10 11 9 9 7 6 9 8 7 14 16 16 12 14 17 17 20 19 18 25 29 28 28 26 25 26 23 19 19 18 17 17 16 17 16 11 9 11 12 10 10 10 9 8 7 7 6 6 6 7 7 7 6 7 7 6 6 7 7 8 8 7 6 7 8 8 8 9 10 9 9 10 10 11
8 7 7 7 5 6 6 5 6 6 7 9 11 11 9 6 3 1 3 2 5 9 7 9 10 10 11 10 9 9 6 9 12 13 13 10 10 12 13 18 26 28 28 33 35 33 30 29 29 27 24 22 20 18 17 16 16 14 10 12 14 13 11 10 10 9 9 8 7 7 7 7 8 8 8 7 7 7 6 6 8 8 8 8 7 7 8 8 8 9 10 11 11 11 12 13 14
9 8 7 7 5 5 6 6 6 7 8 10 8 4 5 4 2 5 8 9 4 1 4 6 6 9 11 10 9 7 8 11 12 11 11 9 11 14 13 15 23 27 24 26 31 33 35 35 33 31 29 28 25 22 19 17 15 12 11 15 16 14 12 10 10 9 9 8 7 7 7 7 8 8 9 8 7 7 6 7 10 10 8 8 8 8 8 9 10 11 11 12 13 13 14 15 14
10 9 8 7 5 4 5 5 5 4 5 7 7 4 3 4 4 7 10 11 9 7 7 8 6 6 7 8 7 7 11 12 11 9 10 11 13 17 14 11 16 19 18 19 21 22 25 30 33 34 34 33 30 26 23 19 15 12 13 15 15 14 13 11 10 9 8 7 7 6 6 7 9 9 9 9 8 8 8 9 10 11 10 10 9 8 9 10 13 12 12 13 13 13 13 14 14
7 9 9 7 5 4 3 2 1 1 3 4 5 3 2 4 4 6 8 9 8 8 9 11 12 11 9 8 8 10 12 11 10 9 9 11 15 17 13 8 9 11 12 15 18 16 15 19 25 30 32 33 31 30 28 22 16 15 16 16 15 14 14 12 11 9 8 7 6 5 5 7 10 10 10 9 9 10 11 11 12 12 11 11 10 10 10 11 13 12 12 12 13 13 13 13 14
2 6 8 7 7 5 3 3 3 2 2 3 2 1 4 6 3 4 7 8 9 9 10 12 11 11 12 11 10 11 12 12 12 10 8 9 13 16 15 12 12 12 13 15 18 20 22 23 24 25 27 28 28 30 29 24 21 20 19 18 16 15 15 13 12 11 9 8 7 5 6 9 11 11 11 11 10 11 12 12 13 12 11 11 11 11 11 11 12 12 11 12 13 14 14 14 14
4 4 4 5 7 6 3 3 3 3 5 5 5 5 5 5 4 6 10 9 11 12 12 12 9 9 11 11 11 12 13 13 13 10 7 8 11 13 14 14 14 17 18 17 17 20 23 22 22 23 25 26 27 28 28 25 24 24 22 20 18 16 15 14 13 13 11 9 8 7 7 9 11 11 11 12 11 11 12 12 12 12 11 11 11 11 11 11 11 12 12 13 13 14 15 14 13
10 4 0 2 4 4 4 2 4 5 5 5 7 9 5 0 1 7 11 10 11 11 11 10 8 8 10 11 12 13 12 11 10 8 7 7 10 11 13 12 11 15 18 16 15 16 16 16 19 20 19 19 20 24 25 24 23 24 23 21 18 17 15 15 15 13 12 10 9 8 8 9 11 11 11 12 11 11 11 11 12 12 11 10 11 11 10 11 11 12 12 13 13 14 15 15 14
11 6 3 4 3 3 3 2 4 5 4 5 8 8 3 6 5 5 12 12 10 9 9 9 7 7 9 9 10 10 10 9 6 6 6 6 9 12 13 13 11 13 17 17 16 15 14 16 20 20 19 18 17 19 23 22 21 22 23 21 18 17 15 15 15 14 12 11 10 9 10 10 11 11 11 11 11 10 10 11 11 11 11 11 10 10 10 10 10 11 11 12 12 13 14 14 14
7 7 6 6 3 4 4 3 4 5 3 3 5 3 3 4 5 7 14 13 10 8 8 9 6 6 8 6 7 7 5 8 9 7 7 8 11 15 15 14 12 12 14 14 13 13 13 14 15 17 20 20 19 19 21 21 19 20 21 20 18 17 16 17 16 14 12 10 10 10 10 10 11 11 11 11 10 10 10 10 10 11 11 11 11 10 10 10 10 10 11 11 12 12 13 14 14
8 7 7 7 6 5 4 4 4 5 4 2 1 1 2 2 3 5 9 10 11 9 10 11 9 9 7 4 8 8 3 7 12 11 10 10 14 18 18 15 14 14 13 12 11 12 12 11 11 12 13 14 15 16 17 18 18 18 20 20 19 18 18 18 16 14 12 11 10 10 10 11 11 11 11 10 10 10 9 9 10 11 11 11 11 11 10 10 10 10 9 9 11 12 12 13 13
Wind_Direction
217 231 246 244 240 256 244 216 238 213 224 250 244 248 243 241 247 250 231 156 137 270 278 280 346 273 328 342 62 77 47 30 32 23 95 123 123 113 107 112 118 121 124 138 148 148 152 154 157 160 163 162 160 160 159 158 154 151 150 150 149 146 144 141 139 137 133 130 131 135 137 136 135 131 129 128 125 122 119 118 116 116 117 115 114 111 108 106 105 104 103 101 103 104 103 99 97
215 228 240 244 240 249 243 199 246 230 212 242 239 246 251 244 240 238 225 171 111 83 69 51 338 285 10 305 304 81 53 49 72 80 104 122 114 113 115 116 118 119 127 139 145 146 149 153 158 160 161 159 158 159 158 157 154 152 152 150 149 147 146 143 140 136 133 130 129 133 136 137 137 133 128 127 125 123 121 119 117 117 114 114 114 114 114 113 111 108 105 103 108 110 106 101 101
227 240 232 226 233 239 253 214 234 250 227 234 237 233 241 253 247 237 249 220 88 85 102 94 33 294 202 259 321 72 67 57 87 99 118 130 120 120 121 116 119 122 129 135 139 143 144 152 159 158 157 157 159 159 157 157 155 154 153 151 149 148 147 145 140 135 132 130 128 128 130 134 136 132 126 125 125 124 119 116 119 120 115 114 115 118 120 119 117 112 108 107 111 112 109 104 101
234 252 241 214 220 223 236 234 224 249 244 243 245 217 220 239 241 135 78 69 75 97 187 113 110 16 27 44 40 69 81 72 89 101 118 127 127 127 122 119 123 126 130 134 135 139 144 154 158 157 156 158 160 158 158 158 155 155 152 150 149 148 148 144 139 136 134 131 129 126 126 130 134 133 130 129 127 125 123 123 122 119 118 117 117 121 124 124 121 116 113 111 114 114 110 104 102
237 254 248 228 233 229 232 240 230 240 243 251 257 262 255 231 166 83 75 59 55 127 249 226 130 99 60 42 32 58 72 85 88 88 102 114 125 128 124 125 127 129 133 135 134 138 147 154 157 156 156 157 159 158 157 156 155 154 150 149 148 149 147 143 141 137 135 131 127 123 120 125 131 134 134 134 131 131 133 131 123 119 121 122 123 126 129 129 125 121 119 118 121 117 111 105 102
239 252 242 235 263 298 268 241 236 236 240 251 262 302 333 40 71 77 87 84 188 255 262 250 216 123 90 66 55 48 36 85 106 94 108 114 123 129 129 130 131 133 136 136 135 142 149 153 156 155 155 156 157 156 154 153 154 152 148 147 148 149 146 144 142 138 136 130 125 121 119 123 129 134 137 138 136 135 132 128 123 125 128 127 128 130 133 132 129 128 124 126 128 119 112 107 101
231 242 218 224 254 273 258 249 245 242 240 245 256 274 332 44 44 67 108 172 173 203 229 242 219 127 89 98 75 48 29 52 127 118 119 118 122 133 135 133 134 137 139 137 138 148 151 154 156 154 154 155 155 154 152 151 151 149 147 147 146 147 145 144 142 139 136 130 127 126 128 130 132 135 140 142 140 135 130 131 131 133 137 136 136 136 137 134 134 135 134 134 132 124 118 107 100
229 245 210 219 234 230 234 252 249 254 248 242 250 253 59 65 39 21 301 227 175 191 197 229 222 131 84 100 90 56 40 44 106 120 123 124 129 140 140 137 137 140 140 135 143 154 152 155 155 153 153 154 155 153 151 148 149 149 149 148 146 146 144 143 141 140 137 136 135 133 135 135 139 139 141 144 141 134 131 136 139 140 144 143 140 141 140 137 139 138 140 140 135 135 127 117 112
228 241 235 232 238 238 235 246 244 253 257 254 254 227 102 109 143 267 297 287 191 280 196 199 216 139 99 96 93 83 62 57 93 112 124 130 136 141 142 139 138 142 139 135 149 155 151 155 154 153 152 151 152 151 149 147 149 150 151 152 149 147 144 144 144 145 144 146 145 140 139 141 145 141 140 142 138 134 132 138 141 141 145 146 142 145 147 146 147 144 148 150 152 154 142 134 132
221 226 234 242 237 249 242 242 242 248 254 257 252 192 82 91 171 234 263 276 252 276 223 188 192 129 108 100 95 87 85 86 100 117 132 136 139 140 139 139 140 139 134 137 150 150 149 156 154 153 152 150 151 149 149 149 151 153 153 153 150 148 146 148 150 150 150 154 152 144 142 146 148 144 142 138 130 134 138 143 145 141 144 148 147 151 157 158 158 157 158 157 162 168 170 168 154
222 218 228 249 238 247 247 246 242 238 247 253 238 149 91 95 145 246 238 256 260 249 232 218 167 112 107 102 99 101 102 113 125 137 145 143 143 142 139 137 138 133 131 137 144 144 147 156 155 154 154 152 153 150 149 150 153 155 155 154 152 152 151 152 153 152 153 155 152 144 141 145 148 145 142 133 124 136 143 143 145 137 139 144 143 145 151 160 166 168 165 158 166 176 179 176 174
229 222 213 242 246 245 250 255 250 239 236 240 231 126 122 148 175 256 246 243 251 252 236 214 140 112 117 109 108 128 119 131 144 151 153 149 144 142 140 132 132 130 130 134 138 142 145 152 156 156 156 154 152 147 146 149 155 156 155 153 152 154 155 155 154 152 151 149 146 139 137 140 147 146 141 136 130 139 141 139 139 132 135 138 136 139 140 150 160 166 170 171 178 187 194 190 192
235 238 222 235 247 252 255 258 261 259 242 227 206 99 108 128 212 249 249 239 232 244 236 192 133 116 115 106 124 142 132 144 152 159 157 150 145 141 138 129 128 129 130 134 137 142 142 147 153 157 157 149 143 141 145 149 151 153 151 151 152 155 155 155 155 151 147 143 139 134 135 138 142 144 141 139 133 133 132 132 135 132 138 142 146 160 158 163 172 175 179 190 195 197 217 234 220
234 246 248 250 250 255 261 261 267 267 263 343 119 121 121 164 251 282 274 260 239 239 235 134 118 116 111 118 142 154 144 150 156 161 158 151 145 137 132 124 126 130 133 136 136 140 141 142 145 151 150 139 137 144 148 147 146 148 149 151 152 152 151 153 151 145 142 138 135 134 134 133 134 139 140 138 134 131 132 134 139 141 146 150 175 198 189 182 193 199 195 202 210 218 230 237 226
235 249 255 259 260 256 255 259 269 268 293 58 88 123 116 206 185 323 273 266 261 244 222 113 115 119 141 167 157 159 151 151 157 160 158 153 141 127 124 124 128 134 134 136 138 140 138 137 140 140 135 133 141 149 149 149 151 151 152 154 152 151 149 147 144 136 137 136 134 134 127 124 123 125 124 119 122 131 140 146 154 162 161 187 200 195 191 185 193 204 209 214 221 233 232 222 218
236 254 254 255 262 260 256 254 257 265 301 74 70 160 166 235 158 231 253 253 266 251 125 110 107 110 160 171 144 150 148 148 153 159 159 148 135 125 125 130 132 134 135 137 137 138 137 136 133 130 129 137 144 149 153 156 159 157 154 159 159 158 153 144 140 134 136 137 134 129 121 123 120 118 117 107 116 148 161 168 177 181 193 315 177 165 174 177 184 193 206 215 218 225 220 210 210
232 242 254 255 251 254 253 251 247 258 240 107 24 273 221 248 164 201 268 267 274 295 82 85 73 94 154 144 133 140 140 145 151 162 162 148 140 133 134 135 131 129 130 134 136 139 143 139 129 128 136 145 147 148 156 160 162 162 158 163 163 159 152 143 142 140 143 145 141 138 134 137 132 134 142 141 160 178 184 191 187 179 126 358 16 157 160 154 156 153 170 194 202 206 202 204 205
232 227 240 249 248 252 248 254 267 280 273 90 52 9 315 274 208 158 225 240 252 206 101 86 75 73 93 106 124 133 135 144 158 170 164 155 149 139 141 142 136 130 125 131 143 144 147 148 135 134 145 147 149 153 159 163 166 166 164 164 159 154 149 147 150 150 154 153 150 148 145 145 143 146 148 152 168 175 193 205 192 182 165 15 5 188 187 145 100 90 102 153 185 194 195 195 194
230 231 233 240 246 252 249 257 279 337 355 35 57 4 257 279 321 112 205 230 221 202 123 96 95 89 87 103 121 132 138 148 167 175 166 164 154 144 149 144 133 127 129 136 131 111 127 153 142 136 148 150 155 160 160 164 166 166 164 161 156 154 153 154 155 155 159 157 152 150 149 150 151 153 148 151 167 175 201 212 196 184 171 109 92 226 269 289 327 359 21 17 193 196 197 195 200
222 234 239 238 243 255 261 270 297 7 13 356 26 206 230 281 335 167 240 249 222 203 137 119 125 118 115 117 128 136 144 158 171 176 170 168 161 152 141 123 114 121 135 133 106 96 117 152 148 140 151 154 156 158 160 164 164 165 163 160 159 157 158 159 159 160 162 157 153 154 157 158 155 157 154 157 169 180 205 214 204 189 172 159 160 230 287 305 315 334 357 308 216 192 201 203 215
210 226 240 245 246 249 256 272 300 293 305 307 347 121 245 269 242 229 237 252 324 337 131 139 149 149 141 136 140 142 154 164 168 179 175 172 162 133 107 107 121 130 131 119 115 121 125 142 144 142 150 154 154 155 160 160 160 165 163 163 162 160 162 164 163 165 164 160 159 162 168 165 158 160 162 169 174 180 195 210 215 199 187 183 167 195 248 309 316 315 322 295 275 270 264 265 249
220 228 237 248 255 255 260 292 319 293 307 264 274 278 275 295 259 265 213 161 241 278 60 131 158 159 152 148 149 151 166 168 166 181 179 176 148 102 99 121 132 134 124 116 133 147 134 138 144 143 144 149 152 152 155 156 159 164 165 166 165 164 167 167 168 169 168 166 167 170 173 166 156 161 165 172 181 187 192 202 211 204 204 191 167 183 207 269 304 291 289 280 285 292 282 279 271
232 239 238 244 254 261 276 301 325 334 345 269 260 268 286 329 266 255 226 165 167 163 29 202 166 150 151 149 152 162 172 171 167 181 187 174 126 103 120 138 136 136 127 121 133 141 137 145 150 143 142 149 152 151 152 157 162 164 168 170 168 170 170 168 171 174 173 169 170 172 171 160 149 158 168 176 190 200 202 204 206 205 214 204 179 187 205 221 262 267 261 256 261 277 282 277 266
231 242 242 246 251 255 267 279 309 55 267 264 263 262 272 288 262 245 248 193 131 111 95 146 134 133 146 146 155 166 171 174 172 184 188 152 114 121 136 140 145 139 123 120 125 135 139 144 149 146 148 151 150 151 153 158 164 166 171 172 173 176 170 169 172 174 174 168 170 170 163 156 150 156 170 186 201 206 214 218 217 219 228 225 189 196 223 243 275 253 246 255 252 261 286 286 264
230 241 245 250 254 252 252 254 253 217 235 252 260 264 259 255 263 256 257 196 129 141 158 133 119 137 143 144 156 163 171 178 181 189 176 126 118 131 137 145 153 137 122 125 126 134 139 139 143 146 151 152 148 150 155 160 164 169 174 178 180 175 168 171 170 167 165 164 169 167 162 161 164 167 169 188 213 216 223 228 230 235 242 249 209 228 251 243 281 241 231 251 251 255 275 278 279
228 240 244 247 254 258 256 244 239 237 235 240 239 250 252 245 262 261 260 227 147 161 160 146 158 156 142 141 146 163 183 187 186 184 153 124 128 132 136 150 149 134 128 129 129 133 138 139 140 143 150 154 150 149 157 161 162 166 175 182 180 171 169 173 168 160 156 161 164 165 171 170 174 178 173 188 219 230 232 225 226 234 237 232 204 229 239 229 270 239 217 232 233 257 262 227 284
242 243 242 241 250 259 265 251 237 246 243 240 237 239 242 235 246 244 243 249 195 161 168 164 155 150 151 141 134 144 216 216 192 164 139 128 138 137 141 152 142 134 134 133 133 133 138 141 142 147 152 154 151 153 157 155 156 163 172 180 176 171 172 170 168 168 162 160 158 161 174 176 177 180 181 193 208 216 211 203 206 201 202 207 194 204 229 237 263 236 220 236 230 254 256 209 275
254 253 250 243 251 254 254 244 226 240 238 231 236 242 239 228 235 229 227 246 203 160 201 172 142 150 162 145 141 138 235 234 203 158 141 135 146 144 144 150 137 133 139 139 137 138 144 146 148 151 150 151 154 158 156 152 155 162 168 174 174 175 175 170 168 172 170 164 159 163 170 172 176 179 183 189 194 199 193 193 205 206 212 219 213 215 230 238 251 241 229 239 235 233 239 223 258
256 259 263 251 253 251 248 243 220 227 233 220 222 238 240 225 230 226 227 242 190 169 217 182 153 157 159 154 149 158 195 212 207 168 149 145 152 146 143 146 136 136 143 141 138 144 151 152 153 152 151 152 156 160 157 152 154 157 160 163 171 177 172 171 170 168 172 169 163 169 169 165 173 182 185 187 190 196 191 193 212 218 218 223 228 227 230 239 245 242 227 213 207 198 210 217 240
253 252 258 254 254 249 244 240 225 226 231 220 213 225 237 226 231 226 225 237 201 181 214 197 179 159 143 157 151 168 188 182 189 178 152 148 148 141 144 147 140 141 147 146 143 145 149 152 153 151 151 152 157 163 156 151 153 155 159 161 168 172 167 169 171 172 174 171 171 177 171 162 168 179 184 186 190 190 179 188 212 217 215 227 230 227 230 236 236 229 216 206 194 179 191 217 274
247 241 240 246 252 252 243 232 220 222 225 219 214 223 234 225 227 219 222 236 203 185 205 198 206 164 133 159 163 170 183 169 175 170 155 150 143 140 147 150 145 146 151 153 148 146 148 152 152 150 150 150 156 162 152 148 152 155 159 162 164 165 167 170 171 180 178 170 180 188 178 168 169 178 185 184 184 189 183 188 205 205 202 220 220 219 230 232 233 227 203 197 199 191 201 241 311
238 236 237 236 240 250 249 234 217 216 219 214 212 228 235 233 231 209 211 228 191 188 210 193 216 170 133 157 168 164 175 169 168 161 157 153 147 149 150 150 151 148 152 156 152 149 150 153 153 151 149 150 155 158 152 149 150 153 157 161 164 163 168 175 175 181 175 169 181 185 175 174 173 178 192 191 187 199 202 201 201 197 196 206 208 211 224 224 235 237 213 226 226 206 240 286 331
221 227 239 239 238 240 245 242 221 208 212 211 210 227 230 234 245 216 204 214 191 192 215 201 211 184 135 142 160 165 172 168 166 162 158 151 150 154 153 155 157 151 150 153 153 151 152 155 154 152 148 149 155 156 151 149 148 149 154 158 162 162 166 172 172 171 172 174 185 186 173 173 177 178 188 195 198 205 213 213 198 193 195 197 207 213 216 209 211 228 211 236 222 186 310 256 12
222 221 233 242 244 242 237 246 224 199 205 213 206 217 237 234 242 238 213 205 193 190 212 211 206 194 136 129 171 179 165 167 163 161 160 150 148 155 157 161 163 156 151 154 156 153 154 155 154 152 148 147 154 153 147 147 148 147 149 154 155 155 156 154 156 159 166 170 178 182 170 170 180 179 182 191 201 208 212 209 189 187 191 188 202 209 206 198 193 191 171 166 158 119 91 136 131
227 217 224 234 243 248 237 245 228 190 195 217 206 203 231 242 245 263 235 194 181 184 207 214 202 194 138 134 188 178 150 158 147 157 165 152 151 157 159 166 167 159 154 155 156 157 155 153 152 150 146 146 148 149 148 146 144 142 141 143 143 141 138 138 146 149 149 154 163 169 163 165 169 168 177 186 194 205 202 189 182 181 177 174 190 201 187 183 188 189 174 160 149 134 115 127 137
238 234 236 229 232 246 238 248 237 186 186 211 214 206 215 237 245 262 256 159 174 192 196 214 208 188 152 154 189 166 144 155 165 172 166 157 162 162 161 169 168 160 159 157 157 157 155 154 153 148 145 145 146 147 146 142 139 138 135 134 138 138 133 133 138 136 134 135 139 151 157 158 153 154 170 177 180 189 175 163 166 165 169 172 182 193 177 172 179 178 182 178 166 166 155 101 121
254 273 270 241 229 244 234 243 235 185 185 203 212 221 211 225 242 233 176 145 199 220 194 222 222 185 180 185 180 168 161 167 176 168 156 162 168 163 163 166 165 162 163 164 160 155 156 160 156 148 146 143 144 146 142 141 138 137 138 136 138 139 131 127 124 116 118 122 122 134 145 145 147 149 155 161 170 175 158 152 156 158 182 189 183 187 179 174 171 162 189 188 170 172 170 158 139
264 281 286 255 225 240 238 239 230 186 185 202 203 223 220 217 234 233 202 169 192 225 212 227 226 193 200 201 182 178 169 165 168 150 147 170 168 159 162 161 163 166 170 171 161 151 155 163 154 146 150 143 136 138 139 141 139 138 142 140 143 142 137 139 134 122 116 118 118 122 127 130 141 143 143 148 157 170 161 151 153 163 188 201 192 185 183 182 168 160 190 191 174 172 168 172 166
263 266 278 276 239 236 240 238 231 190 174 216 201 211 229 223 224 232 228 191 180 205 213 220 222 205 205 208 191 169 161 174 163 140 150 177 167 158 160 159 165 172 178 172 153 146 153 162 156 146 147 142 131 129 130 132 136 140 137 135 143 135 129 133 129 126 121 120 120 116 116 118 123 131 136 140 144 165 170 156 160 173 184 201 204 191 187 188 170 174 190 183 176 168 156 156 168
256 257 253 271 264 244 239 227 218 165 140 249 230 218 232 233 229 223 231 224 185 185 206 218 222 211 210 219 188 153 177 186 156 139 156 177 169 164 162 159 166 175 180 166 147 147 153 158 156 144 138 134 130 128 123 123 129 132 121 119 130 124 115 115 116 123 124 121 119 113 112 114 115 122 127 128 135 153 165 165 173 181 179 189 205 200 194 191 182 195 195 178 174 165 153 145 149
239 250 246 256 263 256 242 164 165 148 144 214 255 257 238 230 232 213 218 236 198 176 198 215 222 211 213 224 170 135 183 183 151 144 162 180 172 168 166 163 170 174 170 158 148 149 150 148 142 136 135 134 134 134 126 124 119 114 114 110 115 117 113 116 122 126 127 125 123 118 117 119 121 125 126 118 119 132 149 160 168 172 178 186 198 204 203 197 194 203 196 179 178 168 153 139 143
238 234 240 254 263 264 257 190 173 201 191 182 208 248 241 228 235 220 218 230 197 177 203 216 218 208 212 215 139 95 205 193 153 142 163 181 164 164 166 162 164 164 161 151 142 142 139 135 132 131 137 139 139 139 137 135 122 109 117 113 112 121 128 140 138 136 138 131 126 124 121 122 122 125 128 120 117 125 140 155 167 167 178 188 192 204 211 206 201 205 198 184 186 180 157 134 148
249 228 224 242 256 264 272 248 180 203 231 194 197 231 247 226 231 229 227 224 195 191 214 218 215 210 215 199 109 97 218 195 140 129 156 167 169 173 156 149 150 147 144 120 116 128 125 119 126 134 139 142 141 142 146 142 128 120 135 129 133 148 152 150 142 139 135 123 121 122 120 124 124 121 122 125 128 134 138 148 170 169 170 180 181 197 209 199 188 195 201 191 198 206 174 154 164
246 242 218 223 240 253 266 263 219 210 230 217 205 219 243 233 224 220 217 220 210 202 206 209 216 219 207 122 106 172 218 193 148 145 143 143 221 208 114 119 146 135 118 105 109 123 123 121 138 144 143 144 143 144 148 141 130 136 159 159 176 180 153 139 135 131 122 120 128 129 128 130 131 128 126 129 133 135 135 133 143 156 163 169 169 161 146 154 161 168 185 186 190 201 183 173 173
239 249 243 228 227 238 252 256 242 231 227 228 216 213 234 244 234 215 207 220 217 202 199 205 216 214 134 100 123 212 215 193 170 133 131 151 206 206 100 105 125 126 121 119 121 130 134 138 148 148 144 143 146 149 150 145 138 144 168 197 196 164 138 138 139 131 127 135 142 144 145 138 134 134 131 133 133 133 136 128 127 135 135 141 145 134 112 111 122 138 156 169 170 175 171 173 166
237 245 261 259 225 221 239 244 236 234 227 233 224 214 226 247 237 207 204 235 219 196 204 209 206 162 94 95 85 289 243 186 93 81 118 148 143 139 109 92 95 108 122 131 130 131 139 144 144 144 144 145 152 159 158 154 145 145 170 212 185 145 142 153 147 140 142 147 152 153 149 142 139 137 131 135 136 136 136 127 124 113 95 104 118 118 114 108 104 112 120 131 143 143 143 153 147
231 235 253 265 235 216 229 230 231 237 234 239 232 218 217 246 246 207 202 224 202 199 212 191 168 118 91 90 92 256 241 137 83 83 103 120 106 106 110 95 88 95 118 135 135 133 141 144 141 142 146 153 164 169 166 160 150 151 174 198 168 149 159 165 150 151 156 155 160 161 158 156 150 139 132 129 126 129 127 120 123 118 102 101 112 118 122 113 104 104 103 102 112 118 125 133 127
225 227 233 254 237 220 224 216 224 237 235 239 237 224 213 230 252 223 209 215 192 210 208 160 160 152 129 131 155 202 211 108 96 102 110 125 120 115 120 126 133 134 136 143 143 143 146 147 147 147 153 165 172 174 172 165 157 160 177 182 163 160 171 168 158 162 165 164 170 173 173 162 144 137 137 130 121 124 125 120 124 126 117 109 112 120 125 119 108 104 102 95 96 106 116 119 116
229 221 219 238 227 215 224 216 219 233 237 232 231 232 223 225 263 14 41 7 205 209 185 148 174 177 151 161 177 184 167 109 107 116 126 140 128 119 135 149 155 161 160 154 152 154 153 152 154 155 163 175 179 181 180 171 163 168 180 175 166 170 176 171 170 173 169 172 178 181 183 165 149 146 140 131 127 129 130 122 116 119 117 110 110 109 112 122 118 106 102 94 92 97 100 101 104
228 225 219 222 214 214 222 220 222 226 233 229 214 224 230 199 97 73 80 62 42 209 146 135 170 172 157 165 173 152 110 99 102 112 124 125 116 127 151 162 158 164 170 160 156 159 159 161 164 163 168 176 180 184 183 174 171 179 185 174 169 173 176 176 178 176 173 176 181 187 190 170 153 146 136 131 134 133 123 110 106 111 116 115 116 110 106 122 125 113 104 99 96 96 95 95 98
212 227 235 227 217 226 224 224 240 238 246 237 202 193 222 183 100 73 90 84 56 40 63 73 76 116 144 157 148 104 83 90 99 107 108 107 114 129 150 169 159 156 158 156 157 159 161 167 170 170 171 173 176 179 177 175 178 186 183 174 173 174 174 178 178 178 177 173 178 189 186 161 145 138 134 132 132 131 123 115 113 115 117 115 113 106 96 103 112 109 105 105 103 101 104 104 102
206 217 230 231 218 223 229 217 236 308 305 278 216 194 87 120 111 90 105 109 96 79 75 67 56 59 68 85 101 89 84 95 99 95 90 96 108 116 121 130 134 137 144 147 151 158 164 169 172 174 174 173 176 176 173 173 177 182 179 174 178 177 173 177 177 176 178 168 172 182 163 146 141 137 134 133 133 132 127 124 121 118 116 114 113 110 101 100 106 110 110 110 109 109 110 108 106
223 226 227 226 213 202 217 217 173 148 266 257 200 125 104 133 150 142 151 141 112 92 78 69 61 63 65 66 77 79 84 95 97 96 93 88 95 101 105 112 126 139 147 149 154 166 173 173 175 179 177 177 179 178 174 171 171 175 176 175 179 178 176 179 176 173 173 168 168 167 149 143 142 139 136 136 135 131 129 127 123 120 117 116 117 116 113 112 114 117 117 114 113 114 112 110 111
221 235 246 251 225 193 177 231 219 204 237 227 180 183 184 178 193 176 164 137 96 81 74 73 70 75 78 74 76 80 88 96 99 103 99 91 100 108 110 117 134 143 147 150 155 166 173 175 180 179 176 178 179 176 173 170 170 172 175 177 179 179 178 177 174 171 169 167 165 161 154 146 143 142 140 139 135 130 128 126 123 122 118 117 118 117 118 121 122 121 119 116 116 116 115 114 114
229 231 72 256 233 205 186 211 231 219 234 242 203 197 197 4 256 176 154 119 96 95 94 94 88 83 86 88 93 98 101 101 106 115 106 96 111 115 108 116 135 135 130 131 140 154 164 172 179 176 172 174 173 172 170 168 170 173 175 178 176 176 176 172 170 169 165 167 167 164 161 153 148 147 145 142 138 133 130 127 125 124 121 120 119 119 120 122 122 121 119 119 121 122 120 117 115
233 244 226 210 210 225 229 233 240 227 226 239 222 201 131 21 355 124 126 115 111 120 114 103 90 76 80 91 103 107 106 103 103 113 116 123 133 130 126 135 142 126 121 126 136 149 158 165 169 165 166 173 175 174 172 168 171 173 174 175 173 172 171 167 167 166 164 168 167 165 164 159 155 152 149 147 143 138 135 130 128 126 125 124 122 122 123 123 122 122 121 125 126 124 123 121 120
225 231 234 233 211 191 208 236 251 246 241 254 250 216 85 17 356 88 112 123 127 129 116 104 96 77 71 78 95 91 100 122 127 131 139 148 146 141 143 146 140 123 119 124 135 150 157 157 157 154 159 168 174 176 174 169 170 171 171 171 169 168 166 165 166 164 164 168 165 165 165 161 160 157 154 153 151 147 142 136 132 130 128 128 127 126 125 124 125 125 125 128 128 124 122 122 123
236 223 218 229 224 199 208 234 248 254 250 259 302 140 96 35 14 81 109 122 123 129 123 119 134 133 123 133 124 123 169 141 129 134 141 145 144 143 144 144 140 134 128 127 135 145 145 142 144 145 149 157 163 168 168 165 166 168 169 168 166 165 164 164 165 165 164 165 166 167 165 164 164 161 159 160 157 153 149 143 136 133 132 131 130 128 128 126 124 125 126 125 124 123 122 121 120